Home   Weather   Ehingen (Donau)   Past weeks

Flag for Germany Past Weather in Ehingen (Donau), Baden-Württemberg, Germany — Yesterday and Last 2 Weeks

41 °F

Passing clouds.

Feels Like: 39 °F
Forecast: 33 / 50 °F
Wind: 3 mph from Southwest

Location: Laupheim Airport

Current Time: Oct 22, 2016 at 12:10:07 AM

Latest Report: Oct 21, 2016 at 11:20 PM

Visibility: N/A

Pressure: 30.01 "Hg (28.19 "Hg at 508m altitude)

Humidity: 93%

Dew Point: 39 °F

Location of Ehingen (Donau)Location

Past Weather in Ehingen (Donau) — Graph


Ehingen (Donau) Temperature Yesterday

Maximum temperature yesterday: 46 °F (at 2:20 PM)
Minimum temperature yesterday: 41 °F (at 12:20 AM)
Average temperature yesterday: 43 °F

High & Low Weather Summary for the Past Weeks

High63 °F (Oct 16, 3:20 PM)100% (Oct 7, 2:20 AM)30.24 "Hg (Oct 7, 2:20 AM)
Low34 °F (Oct 13, 12:20 AM)54% (Oct 9, 3:20 PM)29.68 "Hg (Oct 14, 5:20 PM)
Average45 °F87%30.06 "Hg
* Reported Oct 6 10:20 PM — Oct 21 10:20 PM, Ehingen (Donau), Weather by CustomWeather, © 2016

Note: Actual official high and low records may vary slightly from our data, if they occured in-between our weather recording intervals... More about our weather records


Ehingen (Donau) Weather History for the Previous 24 Hours

Scroll right to see more
Time TempWeatherWind HumidityBarometerVisibility
10:20 PM
Fri, Oct 21
43 °FPassing clouds.5 mph87%30.01 "HgN/A
9:20 PM43 °FPassing clouds.5 mph87%30.01 "HgN/A
8:20 PM43 °FPassing clouds.6 mph87%30.01 "HgN/A
7:20 PM43 °FPassing clouds.3 mph87%29.98 "HgN/A
6:20 PM45 °FPassing clouds.5 mph71%29.98 "HgN/A
5:20 PM45 °FPartly sunny.5 mph66%29.98 "HgN/A
4:20 PM45 °FPartly sunny.7 mph66%29.98 "HgN/A
3:20 PM46 °FPartly sunny.6 mph66%29.98 "HgN/A
2:20 PM46 °FBroken clouds.7 mph66%29.95 "Hg5 mi
1:20 PM45 °FBroken clouds.5 mph71%29.98 "HgN/A
12:20 PM45 °FBroken clouds.7 mph71%29.98 "HgN/A
12:00 PM45 °FBroken clouds.6 mph81%29.98 "HgN/A
11:20 AM43 °FBroken clouds.5 mph87%29.95 "HgN/A
10:20 AM43 °FBroken clouds.5 mph93%29.95 "HgN/A
10:03 AM41 °FLight rain. Broken clouds.3 mph100%29.95 "HgN/A
9:20 AM43 °FLight rain. Broken clouds.5 mph93%29.95 "Hg6 mi
8:49 AM43 °FLight rain. Broken clouds.3 mph93%29.95 "HgN/A
8:20 AM43 °FBroken clouds.3 mph93%29.92 "HgN/A
7:20 AM43 °FLight rain. Partly cloudy.6 mph93%29.92 "HgN/A
7:03 AM43 °FLight rain. Partly cloudy.6 mph93%29.92 "HgN/A
6:20 AM43 °FPassing clouds.5 mph93%29.92 "Hg4 mi
5:20 AM43 °FPassing clouds.5 mph93%29.89 "Hg4 mi
4:20 AM43 °FPartly cloudy.9 mph93%29.89 "HgN/A
3:20 AM43 °FRain. Passing clouds.10 mph93%29.89 "HgN/A
1:20 AM43 °FPartly cloudy.9 mph81%29.92 "HgN/A
12:20 AM41 °FPassing clouds.9 mph87%29.92 "HgN/A
Weather by CustomWeather, © 2016

See weather overviewHow to use our weather pages